Regional Weather Roundup
Issued by NWS Midland/Odessa, TX

Skip options and go directly to product.
Home | Oldest Version | Previous Version | Current Version | All | Text Only | Save Text | Print | Product List | Glossary Off

Skip product version selection by date and time.   

786
ASUS44 KMAF 210710
RWRMAF
MIDLAND AREA WEATHER ROUNDUP
NATIONAL WEATHER SERVICE MIDLAND TX
200 AM CDT MON APR 21 2014

...IN SOUTHWEST TEXAS AND SOUTHEAST NEW MEXICO...

CITY           SKY/WX    TMP DP  RH WIND       PRES   REMARKS
ALPINE         CLEAR     51  45  78 S8        30.18F
ANDREWS        FAIR      62  59  90 SW12      30.03S
ARTESIA        CLEAR     61  41  48 NW3       30.04S
BIG SPRING     CLEAR     64  60  89 S13       30.04S
CARLSBAD       CLEAR     60  45  57 W7        30.02S
DRYDEN           N/A     70  65  84 E7        30.04S
FORT STOCKTON  CLEAR     62  58  86 S5        30.05S
GUAD PASS      CLEAR     60  36  40 W13       30.17S
HOBBS          CLEAR     61  41  48 W9        30.04F
MARFA          CLEAR     48  36  61 NW8       30.17S
MIDLAND AIRPK  CLEAR     65  60  85 S9        30.03S
MIDLAND INTL   CLEAR     63  60  90 SW9       30.03S
ODESSA         CLEAR     63  60  90 S12       30.04S
PECOS          CLEAR     59  46  63 S8        30.02S
PRESIDIO       FAIR      70  57  61 NE9       30.05R
SEMINOLE       CLEAR     59  55  87 SW9       30.03F
SNYDER         CLEAR     61  59  92 S9        30.01F
WINK           CLEAR     63  58  83 SE8       30.01S
$$
...OTHER STATIONS IN TEXAS...

CITY           SKY/WX    TMP DP  RH WIND       PRES   REMARKS
ABILENE        CLOUDY    66  62  87 S16G26    29.99S
AMARILLO       FOG       53  52  96 S5        30.02F VSB 1/4
AUSTIN         PTCLDY    66  60  81 S13       30.05F
BROWNSVILLE    CLOUDY    68  67  96 SE6       30.04F
CORPUS CHRISTI CLOUDY    71  65  81 SE10      30.04F
DALLAS FTW     MOCLDY    63  61  93 E7        30.03F
DEL RIO        CLOUDY    70  64  81 E9        30.03S
EL PASO        CLEAR     65  42  43 VRB3      30.09R
HOUSTON INT    MOCLDY    66  62  87 S6        30.09F
LUBBOCK        PTCLDY    55  51  86 W5        30.00S
SAN ANGELO     CLOUDY    66  62  87 S16G24    30.02S
SAN ANTONIO    CLOUDY    69  62  78 S9        30.07S
WACO           CLOUDY    68  56  65 S10       30.05S
WICHITA FALLS  NOT AVBL
$$
...OTHER LOCATIONS IN NEW MEXICO...

CITY           SKY/WX    TMP DP  RH WIND       PRES   REMARKS
ALAMAGORDO     CLEAR     57  36  44 CALM      30.11S
ALBUQUERQUE    PTCLDY    59  37  44 SE7       30.15R
CANNON AFB     PTCLDY    55  44  67 NW8       30.07F
CLOVIS           N/A     54  43  66 NW12      30.09S
HOLLOMAN AFB   CLEAR     60  40  47 CALM      30.10S
ROSWELL        CLEAR     61  42  49 NW6       30.04S
RUIDOSO        CLEAR     50  36  57 SW13      30.24S
SANTA FE       PTCLDY    49  34  56 N7        30.18R
TRUTH OR CONSE CLEAR     61  37  41 W9        30.14R
TUCUMCARI      PTCLDY    53  41  63 W10       30.06R
$$

USA.gov is the U.S. government's official web portal to all federal, state and local government web resources and services.